Location: Kalberh�ni
(46.4610°N, 7.2453°E)
Time: 06:25:45
(UTC+00:00)

Cosmos 1802 Rocket - Pass Details

Date: 31 October 2021
Orbit: 955 x 1010 km, 82.9° (Epoch: 05 December)

Event Time Altitude Azimuth Distance (km) Brightness Sun altitude
Rises 19:57:37 0° 231° (SW) 3,624 7.3 -38.0°
Reaches altitude 10° 20:00:45 10° 246° (WSW) 2,686 6.7 -38.5°
Maximum altitude 20:05:19 22° 295° (WNW) 1,992 6.1 -39.2°
Drops below altitude 10° 20:09:57 10° 344° (NNW) 2,715 6.7 -40.0°
Sets 20:13:10 0° 359° (N) 3,675 7.3 -40.5°
